Skagway, AK

3:30 PM AKDT on September 27, 2016 (GMT -0800)
Skagway

Weather History for PAGY - December, 2012

Change the Weather History Date:

Sunday, December 9, 2012

  Actual Average Record
Temperature  
Mean Temperature 26 °F -  
Max Temperature 39 °F 32 °F 46 °F (2005)
Min Temperature 14 °F 25 °F -2 °F (1966)
Degree Days  
Heating Degree Days 38    
Moisture  
Dew Point 24 °F    
Average Humidity 81    
Maximum Humidity 93    
Minimum Humidity 68    
Precipitation  
Precipitation 0.01 in - - ()
Sea Level Pressure  
Sea Level Pressure 29.71 in    
Wind  
Wind Speed 14 mph (SSW)    
Max Wind Speed 31 mph    
Max Gust Speed 41 mph    
Visibility 7 miles    
Events Snow    
Averages and records for this station are not official NWS values.
T = Trace of Precipitation, MM = Missing Value Source: NWS Daily Summary

Daily Weather History Graph

Daily Weather History Graph

Search for Another Location

Airport or City:

Trip Planner

Search our weather history database for the weather conditions in past years. The results will help you decide how hot, cold, wet, or windy it might be!

Date:

Astronomy

Dec. 09, 2012 Rise Set
Actual Time 8:46 AM AKST 3:00 PM AKST
Civil Twilight 7:51 AM AKST 3:55 PM AKST
Nautical Twilight 6:56 AM AKST 4:50 PM AKST
Astronomical Twilight 6:06 AM AKST 5:41 PM AKST
Moon 3:39 AM AKST (12/9) 12:55 PM AKST (12/9)
Length of Visible Light 8h 03m
Length of Day
6h 14m
Waning Crescent, 17% of the Moon is Illuminated
Dec 9
Waning Crescent
Dec 12
New
Dec 19
First Quarter
Dec 28
Full
Jan 4
Last Quarter

Hourly Weather History & Observations

Time (AKST) Temp. Windchill Dew Point Humidity Pressure Visibility Wind Dir Wind Speed Gust Speed Precip Events Conditions
12:20 AM 14.0 °F -0.8 °F 8.6 °F 79% 29.80 in 1.0 mi NE 13.8 mph 24.2 mph 0.00 in Snow Light Snow
12:30 AM 14.0 °F -1.4 °F 8.6 °F 79% 29.79 in 1.8 mi NE 15.0 mph 23.0 mph 0.00 in Snow Light Snow
12:51 AM 15.8 °F 0.9 °F 8.6 °F 73% 29.77 in 1.0 mi NNE 15.0 mph 24.2 mph 0.00 in Snow Light Snow
12:53 AM 15.1 °F -0.6 °F 9.0 °F 77% 29.78 in 1.0 mi NE 16.1 mph 23.0 mph 0.00 in Snow Light Snow
1:09 AM 15.8 °F 0.9 °F 8.6 °F 73% 29.77 in 1.8 mi NE 15.0 mph 25.3 mph 0.00 in Snow Light Snow
1:27 AM 15.8 °F -0.2 °F 8.6 °F 73% 29.77 in 2.5 mi NE 17.3 mph 24.2 mph 0.00 in Snow Light Snow
1:34 AM 15.8 °F 2.1 °F 8.6 °F 73% 29.77 in 3.0 mi NE 12.7 mph 27.6 mph 0.01 in Snow Light Snow
1:53 AM 16.0 °F 2.9 °F 7.0 °F 68% 29.75 in 7.0 mi NNE 11.5 mph - 0.01 in Snow Light Snow
3:05 AM 17.6 °F 9.3 °F 10.4 °F 73% 29.70 in 7.0 mi NE 5.8 mph - 0.00 in Snow Light Snow
3:37 AM 17.6 °F - 10.4 °F 73% 29.68 in 9.0 mi Calm Calm - 0.00 in   Overcast
3:53 AM 18.0 °F - 12.9 °F 81% 29.68 in 4.0 mi Calm Calm - 0.00 in Snow Light Snow
4:53 AM 18.0 °F - 12.0 °F 78% 29.68 in 4.0 mi Calm Calm - 0.00 in Snow Light Snow
5:53 AM 19.0 °F - 15.1 °F 85% 29.65 in 4.0 mi Calm Calm - 0.00 in   Overcast
6:20 AM 19.4 °F 12.8 °F 15.8 °F 86% 29.66 in 4.0 mi NE 4.6 mph - N/A   Overcast
6:44 AM 19.4 °F 9.5 °F 17.6 °F 93% 29.65 in 7.0 mi North 8.1 mph - N/A   Overcast
6:53 AM 19.9 °F 11.1 °F 17.1 °F 89% 29.65 in 7.0 mi Variable 6.9 mph - N/A   Overcast
7:53 AM 30.0 °F 19.1 °F 25.0 °F 82% 29.64 in 8.0 mi SSW 15.0 mph 23.0 mph N/A   Overcast
8:13 AM 33.8 °F 22.5 °F 28.4 °F 81% 29.63 in 6.0 mi SSW 19.6 mph 27.6 mph 0.00 in Snow Light Snow
8:53 AM 33.1 °F 24.4 °F 28.9 °F 85% 29.65 in 2.5 mi SSW 11.5 mph - 0.00 in Snow Light Snow
9:11 AM 30.2 °F - 26.6 °F 86% 29.66 in 1.8 mi Calm Calm - 0.00 in Snow Light Snow
9:35 AM 30.2 °F 26.7 °F 26.6 °F 86% 29.65 in 2.5 mi Variable 3.5 mph - 0.00 in Snow Light Snow
9:53 AM 28.0 °F - 25.0 °F 88% 29.67 in 4.0 mi Calm Calm - 0.00 in Snow Light Snow
10:49 AM 35.6 °F 24.2 °F 30.2 °F 81% 29.66 in 8.0 mi SSW 21.9 mph 31.1 mph 0.00 in   Overcast
10:53 AM 36.0 °F 25.0 °F 30.9 °F 82% 29.67 in 9.0 mi SSW 20.7 mph 29.9 mph 0.00 in   Overcast
11:41 AM 35.6 °F 24.2 °F 30.2 °F 81% 29.68 in 9.0 mi SSW 21.9 mph 28.8 mph 0.00 in   Overcast
11:53 AM 36.0 °F 25.3 °F 30.9 °F 82% 29.69 in 10.0 mi SSW 19.6 mph 29.9 mph 0.00 in   Overcast
12:09 PM 35.6 °F 24.0 °F 30.2 °F 81% 29.68 in 10.0 mi SSW 23.0 mph 29.9 mph N/A   Overcast
12:53 PM 36.0 °F 24.7 °F 30.9 °F 82% 29.69 in 10.0 mi SSW 21.9 mph 29.9 mph N/A   Mostly Cloudy
1:08 PM 35.6 °F 23.7 °F 30.2 °F 81% 29.69 in 10.0 mi SSW 24.2 mph 29.9 mph N/A   Mostly Cloudy
1:16 PM 35.6 °F 24.0 °F 30.2 °F 81% 29.69 in 10.0 mi SSW 23.0 mph 29.9 mph N/A   Mostly Cloudy
1:53 PM 36.0 °F 25.0 °F 32.0 °F 86% 29.70 in 7.0 mi SSW 20.7 mph - N/A   Overcast
2:13 PM 35.6 °F 25.2 °F 30.2 °F 81% 29.70 in 8.0 mi SSW 18.4 mph 27.6 mph 0.00 in   Overcast
2:53 PM 37.0 °F 25.9 °F 32.0 °F 82% 29.71 in 5.0 mi SSW 23.0 mph 29.9 mph 0.00 in   Haze
3:07 PM 35.6 °F 24.8 °F 32.0 °F 87% 29.71 in 4.0 mi SSW 19.6 mph 27.6 mph 0.00 in   Overcast
3:53 PM 36.0 °F 25.3 °F 32.0 °F 86% 29.72 in 7.0 mi SSW 19.6 mph 27.6 mph 0.00 in   Overcast
4:07 PM 37.4 °F 28.2 °F 32.0 °F 81% 29.72 in 9.0 mi SSW 16.1 mph - 0.00 in   Overcast
4:53 PM 37.0 °F 27.4 °F 33.1 °F 86% 29.73 in 10.0 mi SSW 17.3 mph 26.5 mph 0.00 in   Overcast
5:09 PM 37.4 °F 27.8 °F 33.8 °F 87% 29.73 in 10.0 mi SSW 17.3 mph 28.8 mph N/A   Overcast
5:53 PM 37.9 °F 27.1 °F 33.1 °F 83% 29.74 in 10.0 mi SSW 23.0 mph 29.9 mph N/A   Overcast
6:53 PM 37.9 °F 26.6 °F 34.0 °F 86% 29.74 in 8.0 mi SSW 25.3 mph 32.2 mph N/A   Overcast
7:53 PM 37.9 °F 26.6 °F 34.0 °F 86% 29.73 in 10.0 mi SSW 25.3 mph 33.4 mph N/A   Overcast
8:45 PM 39.2 °F 29.3 °F 33.8 °F 81% 29.74 in 10.0 mi SSW 20.7 mph 34.5 mph N/A   Overcast
8:53 PM 39.0 °F 28.8 °F 34.0 °F 82% 29.75 in 10.0 mi SSW 21.9 mph 33.4 mph N/A   Mostly Cloudy
9:53 PM 39.9 °F 28.2 °F 34.0 °F 79% 29.76 in 10.0 mi SSW 31.1 mph 39.1 mph N/A   Overcast
10:53 PM 39.9 °F 28.8 °F 34.0 °F 79% 29.76 in 10.0 mi SSW 27.6 mph 35.7 mph N/A   Overcast
11:17 PM 39.2 °F 28.0 °F 33.8 °F 81% 29.76 in 10.0 mi SSW 26.5 mph 38.0 mph N/A   Overcast
11:53 PM 39.9 °F 28.6 °F 34.0 °F 79% 29.76 in 10.0 mi SSW 28.8 mph 41.4 mph N/A   Overcast